CST,Max TemperatureF,Mean TemperatureF,Min TemperatureF,Max Dew PointF,MeanDew PointF,Min DewpointF,Max Humidity, Mean Humidity, Min Humidity, Max Sea Level PressureIn, Mean Sea Level PressureIn, Min Sea Level PressureIn, Max VisibilityMiles, Mean VisibilityMiles, Min VisibilityMiles, Max Wind SpeedMPH, Mean Wind SpeedMPH, Max Gust SpeedMPH,PrecipitationIn, CloudCover, Events, WindDirDegrees
2012-11-1,44,36,28,34,27,21,81,63,46,30.04,29.97,29.91,10,10,10,17,7,23,0.00,3,,332
2012-11-2,37,28,19,27,24,19,100,76,65,30.16,30.11,30.05,10,10,10,9,2,,0.00,1,,42
2012-11-3,41,37,33,30,28,27,81,71,61,30.22,30.19,30.15,10,10,10,6,1,,0.00,8,,96
2012-11-4,42,34,26,36,33,27,100,88,70,30.22,30.18,30.13,10,8,1,8,2,,0.00,6,,91
2012-11-5,42,38,35,37,35,32,100,85,76,30.19,30.12,29.94,10,8,2,13,5,18,0.00,7,Rain,127
2012-11-6,42,40,37,37,36,32,100,89,76,29.96,29.84,29.76,10,8,2,21,11,26,0.15,8,Rain,280
2012-11-7,42,38,33,36,33,30,93,83,66,30.11,30.06,29.97,10,10,10,10,5,,0.00,5,,245
2012-11-8,53,42,30,39,33,28,100,78,54,30.06,29.97,29.91,10,10,10,16,5,22,0.00,0,,184
2012-11-9,51,40,28,41,36,28,100,82,62,30.03,29.97,29.91,10,8,1,20,6,24,0.00,2,,81
2012-11-10,69,56,42,57,49,39,100,84,56,29.90,29.63,29.47,10,6,1,21,12,29,0.19,5,Rain-Thunderstorm,136
2012-11-11,55,37,19,52,28,12,100,87,69,29.95,29.77,29.53,10,8,2,21,13,29,0.10,8,Rain-Snow,271
2012-11-12,23,20,17,18,15,10,93,79,68,30.28,30.07,29.94,10,9,1,22,13,29,0.00,5,Snow,262
2012-11-13,41,26,12,28,21,10,93,74,53,30.36,30.31,30.27,10,10,7,12,4,,0.00,1,,182
2012-11-14,50,39,28,34,30,27,100,76,47,30.27,30.22,30.15,10,10,10,7,1,,0.00,0,,185
2012-11-15,50,38,26,34,27,12,81,63,50,30.45,30.25,30.12,10,10,10,14,5,,0.00,1,,293
2012-11-16,42,28,15,27,19,10,93,66,39,30.48,30.41,30.32,10,10,10,8,2,,0.00,0,,124
2012-11-17,53,40,26,37,34,25,93,73,54,30.32,30.26,30.20,10,9,7,15,6,23,0.00,2,,161
2012-11-18,57,48,39,36,33,30,70,57,41,30.21,30.12,30.06,10,10,7,15,10,26,0.00,2,,161
2012-11-19,57,44,30,39,36,30,100,69,48,30.10,30.04,30.01,10,9,4,12,6,,0.00,3,,179
2012-11-20,51,40,28,37,33,27,100,84,50,30.16,30.11,30.05,10,8,2,7,3,,0.00,0,,287
2012-11-21,62,46,30,43,38,28,93,61,42,30.05,29.89,29.70,10,10,5,17,7,24,0.00,0,,192
2012-11-22,55,39,23,43,35,16,93,72,54,29.98,29.74,29.62,10,10,3,34,15,44,0.00,3,Rain-Snow,254
2012-11-23,24,19,12,18,14,10,92,77,64,30.35,30.23,29.99,10,9,3,28,20,36,0.00,7,Snow,306
2012-11-24,28,18,8,18,12,7,92,73,51,30.34,30.08,29.79,10,10,10,10,5,16,0.00,5,,173
2012-11-25,30,27,23,23,20,10,80,73,59,30.14,29.95,29.79,10,10,10,18,8,28,0.00,7,,297
2012-11-26,21,16,10,10,7,3,85,71,49,30.40,30.33,30.15,10,10,7,18,10,22,0.00,1,Snow,301
2012-11-27,37,24,12,23,15,7,93,71,56,30.34,30.19,30.08,10,10,7,10,3,18,0.00,3,,224
2012-11-28,35,26,17,23,21,18,100,77,56,30.33,30.23,30.08,10,10,5,8,5,,0.00,2,,254
2012-11-29,39,26,14,27,23,12,100,77,56,30.09,30.06,30.02,10,9,2,12,3,,0.00,0,,57
2012-11-30,35,32,30,32,28,25,100,86,75,30.16,30.10,30.06,10,6,2,12,8,18,0.00,7,,90